Showing default

SHIYAN 32-02, 66378

Orbit data source: Space-Track

SHIYAN 32-02, 66378 is a payload satellite owned by CASC (CN) in LEO that was launched on Sat, 08 Nov 2025 UTC via a CHANG ZHENG 11 launch vehicle from the Yellow Sea Launch Area, China (YSLA). Payload-class satellites include a variety of spacecraft equipped with specific instruments for various scientific and technological missions. These include communications satellites like Starlink; space stations such as the ISS; scientific satellites like the Hubble; Earth observation satellites from companies like Planet Labs, Umbra, and HawkEye 360; GPS; miniature CubeSats for education and research; and military/defense satellites.

Loading next visibility...
Identifier
66378, 2025-255C
Orbit
LEO
Country
Flag of CNCN / PRC
Related business
Manufacturer
IMI/CAS
Mission
Operational Defense Technology
Bus & Motor
Unknown
Mass
~50 kg wet, ~50 kg dry
Launch date (UTC)
2025-11-08 (7 months ago)
Launch vehicle
CHANG ZHENG 11
Launch site
Yellow Sea Launch Area, China (YSLA)
Object type
Payload
Rocket body
Debris
Shape & HBR
Box + 1 Pan, 14.5 m
Radar Cross Section
6.001 m², Large (>1 m²)

Expand to show TLE details & history
Last TLE update: 11 hours ago

TLE from 11 hours ago
0 SHIYAN 32-02
1 66378U 25255C   26171.45401522  .00016521  00000-0  39053-3 0  9997
2 66378  52.9942 358.8161 0011914 180.6516 179.4474 15.41920608 34467
Epoch: 2026-06-20T10:53Z
TLE epoch observation values (Epoch: 2026-06-20T10:53:46.915Z)
Latitude
-0.00001°
Longitude
-73.2978°
Altitude
449.451 km
Speed
7.639 km/s
True Right ascension
23h 55m 15s
True Declination
0° 00' 00"
Sunlit
Object was in daylight at epoch
Visualization orbit readout
Latitude
Unknown
Longitude
Unknown
Altitude
Unknown
Speed
Unknown
Apparent Right ascension
Unknown
Apparent Declination
Unknown
Sunlit
N/A
Visualization observer readout
Local Sidereal Time
08:33:42
Azimuth
Unknown
Elevation
Unknown
Doppler factor
Unknown
Orbital elements
Apogee altitude
448.85 km
Perigee altitude
432.602 km
Semi-major axis
6,818.863 km
Eccentricity
0.00119
Inclination
52.9942°
RAAN
358.8161°
Arg. of periapsis
180.6516°
True anomaly
179.44871°
Mean anomaly
179.4474°
Eccentric anomaly
179.44806°
Mean motion
3.85456 °/min
Orbital period
93.4 mins
BSTAR
0.00039053
Loading maneuver chart data...
Computing Atmospheric mass density...
Loading historical data...
Loading historical data...
Loading historical data...
Loading historical data...
Loading historical data...
Loading historical data...
Loading historical data...
Other satellites on launch #255 in the year 2025 (2025-11-08 UTC)

Documentation

Showing up to 5 results
|